Location: Red Bud (historical)
(37.7759°N, 88.4053°W)
Time: 20:21:33
(UTC+00:00)

Nauka - Pass Details

Date: 17 September 2021
Orbit: 417 x 423 km, 51.6° (Epoch: 26 October)

Event Time Altitude Azimuth Distance (km) Brightness Sun altitude
Rises 02:31:15 0° 268° (W) 2,357 ? -29.5°
Reaches altitude 10° 02:33:47 10° 288° (WNW) 1,497 ? -29.9°
Enters shadow 02:34:51 15° 304° (WNW) 1,233 ? -30.1°
